Home > Weather > Foochow > Past weeks

Flag for China Weather for the Past 2 Weeks in Foochow, Fujian, China

Now
39 °F

Fog.


Feels Like: 37 °F
Forecast: 25 / 62 °F
Wind: 3 mph from North

Location: Fuzhou Airport

Current Time: Feb 7, 2016 at 8:15:30 AM

Latest Report: Feb 7, 2016 at 7:00 AM


Visibility: 3 mi

Pressure: 30.36 "Hg

Humidity: 81%

Dew point: 34 °F

Location of FoochowLocation

Historic Weather in Foochow — Graph

°F

Foochow Temperature Yesterday

Maximum temperature yesterday: 54 °F (at 11:00 AM)
Minimum temperature yesterday: 39 °F (at 5:00 AM)
Average temperature yesterday: 47 °F

High & Low Weather Summary for the Past Weeks

 TemperatureHumidityPressure
High61 °F (Jan 29, 1:00 PM)100% (Jan 27, 8:00 AM)30.69 "Hg (Jan 27, 8:00 AM)
Low30 °F (Jan 25, 7:00 AM)22% (Jan 24, 3:00 PM)30.04 "Hg (Jan 29, 4:00 PM)
Average47 °F73%30.34 "Hg
* Reported Jan 23 6:00 AM — Feb 7 6:00 AM, Foochow, Weather by CustomWeather, © 2016

Note: Actual official high and low records may vary slightly from our data, if they occured in-between our weather recording intervals... More about our weather records

Advertising

Foochow Weather History for the Previous 24 Hours

 ConditionsComfort  
Time TempWeatherWind HumidityBarometerVisibility
6:00 AM
Sun, Feb 7
37 °FFog.1 mph87%30.36 "Hg3 mi
5:00 AM37 °FFog.1 mph87%30.36 "Hg3 mi
4:00 AM39 °FClear.1 mph81%30.36 "Hg4 mi
3:00 AM43 °FClear.1 mph71%30.39 "Hg4 mi
2:00 AM43 °FClear.3 mph71%30.39 "Hg4 mi
1:00 AM45 °FClear.3 mph61%30.39 "Hg4 mi
12:00 AM45 °FClear.8 mph61%30.39 "Hg4 mi
11:00 PM
Sat, Feb 6
45 °FClear.8 mph61%30.42 "Hg4 mi
10:00 PM45 °FClear.8 mph61%30.42 "Hg4 mi
9:00 PM46 °FClear.6 mph50%30.39 "Hg6 mi
8:00 PM46 °FClear.10 mph50%30.39 "Hg10 mi
7:00 PM46 °FClear.10 mph50%30.36 "Hg10 mi
6:00 PM48 °FClear.13 mph50%30.33 "Hg6 mi
5:00 PM50 °FClear.17 mph50%30.30 "Hg5 mi
4:00 PM52 °FClear.17 mph47%30.27 "Hg4 mi
3:00 PM52 °FClear.20 mph50%30.27 "Hg5 mi
2:00 PM54 °FClear.20 mph47%30.27 "Hg6 mi
1:00 PM54 °FClear.17 mph51%30.27 "Hg6 mi
12:00 PM54 °FClear.15 mph51%30.33 "Hg6 mi
11:00 AM54 °FClear.13 mph54%30.36 "Hg6 mi
10:00 AM52 °FClear.13 mph54%30.36 "Hg6 mi
9:00 AM48 °FClear.6 mph71%30.36 "Hg6 mi
8:00 AM45 °FClear.3 mph76%30.33 "Hg5 mi
Weather by CustomWeather, © 2016

See weather overviewHow to use our weather pages